GW1490 Weather Reports


time (UTC)temp
C
wind
direction
speed
KPH
gust
KPH
rain 1hr
cm
rain 24hr
cm
rain mn
cm
humidity
%
barometer
mb
20260510203333 21 248 1.6 3.2 0.00 0.00 0.00 70 996.2
20260510202745 21 267 3.2 3.2 0.00 0.00 0.00 70 996.2
20260510202136 21 250 1.6 3.2 0.00 0.00 0.00 71 996.2
20260510200912 21 239 1.6 3.2 0.00 0.00 0.00 71 996.6
20260510200339 21 258 1.6 6.4 0.00 0.00 0.00 70 996.6
20260510195720 22 248 4.8 6.4 0.00 0.00 0.00 69 996.2
20260510195153 22 253 3.2 4.8 0.00 0.00 0.00 70 996.6
20260510194535 22 267 1.6 6.4 0.00 0.00 0.00 69 996.6
20260510193952 22 256 3.2 4.8 0.00 0.00 0.00 70 996.6
20260510193321 23 282 3.2 3.2 0.00 0.00 0.00 67 996.6
20260510192731 22 187 3.2 6.4 0.00 0.00 0.00 66 996.6
20260510192132 22 273 3.2 4.8 0.00 0.00 0.00 67 996.6
20260510191534 23 228 1.6 3.2 0.00 0.00 0.00 66 996.9
20260510190926 22 238 1.6 3.2 0.00 0.00 0.00 66 996.6
20260510190319 22 255 3.2 4.8 0.00 0.00 0.00 68 996.6
20260510185121 22 235 1.6 4.8 0.00 0.00 0.00 67 996.6
20260510184544 22 262 4.8 6.4 0.00 0.00 0.00 66 996.6
20260510183943 22 234 0.0 4.8 0.00 0.00 0.00 66 996.6
20260510183349 21 243 3.2 3.2 0.00 0.00 0.00 67 996.9
20260510182738 21 241 4.8 6.4 0.00 0.00 0.00 66 996.9
20260510182115 21 249 3.2 3.2 0.00 0.00 0.00 68 996.6
20260510181544 22 256 1.6 6.4 0.00 0.00 0.00 66 996.6
20260510180934 22 253 3.2 4.8 0.00 0.00 0.00 65 996.6
20260510180317 22 247 4.8 4.8 0.00 0.00 0.00 63 996.6
20260510175741 23 243 1.6 1.6 0.00 0.00 0.00 63 996.6
20260510175152 23 238 1.6 3.2 0.00 0.00 0.00 65 996.6
20260510173950 23 243 1.6 1.6 0.00 0.00 0.00 61 996.2
20260510173326 23 229 1.6 4.8 0.00 0.00 0.00 64 996.2
20260510172724 23 229 1.6 4.8 0.00 0.00 0.00 66 996.2
20260510172111 22 240 1.6 3.2 0.00 0.00 0.00 66 996.2
20260510170336 21 244 3.2 3.2 0.00 0.00 0.00 69 996.6
20260510165751 21 224 1.6 3.2 0.00 0.00 0.00 67 996.6
20260510164545 20 237 1.6 3.2 0.00 0.00 0.00 71 996.6
20260510163944 20 237 1.6 1.6 0.00 0.00 0.00 72 996.6
20260510162725 21 234 0.0 3.2 0.00 0.00 0.00 69 996.9
20260510161529 21 240 4.8 6.4 0.00 0.00 0.00 69 996.6
20260510160950 21 227 1.6 3.2 0.00 0.00 0.00 68 996.6
20260510155736 20 222 0.0 3.2 0.00 0.00 0.00 71 996.6
20260510155150 20 238 1.6 3.2 0.00 0.00 0.00 72 996.2
20260510154523 20 235 1.6 1.6 0.00 0.00 0.00 72 996.2
20260510153949 20 240 0.0 1.6 0.00 0.00 0.00 76 996.2
20260510153322 20 252 3.2 4.8 0.00 0.00 0.00 73 996.6
20260510152734 20 251 3.2 3.2 0.00 0.00 0.00 72 996.6
20260510152149 20 224 1.6 3.2 0.00 0.00 0.00 72 996.2
20260510151535 20 240 6.4 9.7 0.00 0.00 0.00 70 996.6
20260510150914 21 243 1.6 4.8 0.00 0.00 0.00 68 996.2
20260510150339 21 228 1.6 1.6 0.00 0.00 0.00 71 996.2
20260510145717 21 164 4.8 6.4 0.00 0.00 0.00 66 995.5
20260510145138 21 172 3.2 6.4 0.00 0.00 0.00 65 995.5
20260510144510 21 147 4.8 4.8 0.00 0.00 0.00 67 995.9
20260510143927 20 233 0.0 1.6 0.00 0.00 0.00 72 996.2
20260510143335 20 243 1.6 1.6 0.00 0.00 0.00 68 996.2
20260510142713 20 233 0.0 1.6 0.00 0.00 0.00 71 996.2
20260510142128 20 212 1.6 1.6 0.00 0.00 0.00 71 996.2
20260510140929 20 233 0.0 3.2 0.00 0.00 0.00 68 995.9
20260510135715 20 180 3.2 3.2 0.00 0.00 0.00 71 996.2
20260510135116 20 221 1.6 6.4 0.00 0.00 0.00 70 995.9
20260510134511 19 206 3.2 12.9 0.00 0.00 0.00 71 996.2
20260510133348 18 200 3.2 3.2 0.00 0.00 0.00 75 996.2
20260510132749 18 220 1.6 4.8 0.00 0.00 0.00 74 996.2
20260510131517 18 230 1.6 3.2 0.00 0.00 0.00 79 996.2
20260510130920 18 196 6.4 6.4 0.00 0.00 0.00 75 995.9
20260510130331 18 145 4.8 11.3 0.00 0.00 0.00 76 995.9
20260510125751 17 190 3.2 6.4 0.00 0.00 0.00 79 996.2
20260510125144 16 225 1.6 4.8 0.00 0.00 0.00 84 995.9
20260510123308 15 236 0.0 1.6 0.00 0.00 0.00 90 995.9
20260510122730 15 230 0.0 1.6 0.00 0.00 0.00 91 995.9
20260510122134 15 232 0.0 1.6 0.00 0.00 0.00 91 995.9
20260510121511 14 217 0.0 3.2 0.00 0.00 0.00 93 995.5
20260510120949 14 284 1.6 3.2 0.00 0.00 0.00 94 995.9
20260510115743 13 238 1.6 1.6 0.00 0.00 0.00 98 995.5
20260510114518 11 222 0.0 1.6 0.00 0.00 0.00 99 995.5
20260510113914 11 222 1.6 1.6 0.00 0.00 0.00 99 995.5
20260510112710 11 222 0.0 3.2 0.00 0.00 0.00 99 995.2
20260510112131 11 218 1.6 1.6 0.00 0.00 0.00 99 995.2
20260510111532 11 220 1.6 1.6 0.00 0.00 0.00 99 994.9
20260510110933 11 215 1.6 1.6 0.00 0.00 0.00 99 994.9
20260510110312 10 224 0.0 1.6 0.00 0.00 0.00 99 994.9
20260510105747 10 212 1.6 3.2 0.00 0.00 0.00 99 994.9
20260510105143 10 219 0.0 3.2 0.00 0.00 0.00 99 994.5
20260510103935 10 216 1.6 3.2 0.00 0.00 0.00 99 994.5
20260510103324 10 213 1.6 1.6 0.00 0.00 0.00 99 994.5
20260510102717 10 218 1.6 3.2 0.00 0.00 0.00 99 994.2
20260510102142 10 220 1.6 1.6 0.00 0.00 0.00 99 994.2
20260510101511 10 219 1.6 3.2 0.00 0.00 0.00 99 994.5
20260510100351 10 223 1.6 3.2 0.00 0.00 0.00 99 994.2
20260510095710 10 218 1.6 3.2 0.00 0.00 0.00 99 994.2
20260510095139 10 221 1.6 1.6 0.00 0.00 0.00 99 994.2
20260510094539 10 221 0.0 1.6 0.00 0.00 0.00 99 993.9
20260510093908 10 208 3.2 3.2 0.00 0.00 0.00 99 993.9
20260510093327 10 219 1.6 3.2 0.00 0.00 0.00 99 993.9
20260510092725 10 204 1.6 1.6 0.00 0.00 0.00 99 993.9
20260510092129 10 229 0.0 1.6 0.00 0.00 0.00 99 993.9
20260510091537 10 207 1.6 3.2 0.00 0.00 0.00 99 993.9
20260510090909 10 216 1.6 1.6 0.00 0.00 0.00 99 993.9
20260510090341 10 214 1.6 1.6 0.00 0.00 0.00 99 993.9
20260510085716 10 218 1.6 1.6 0.00 0.00 0.00 99 993.9
20260510083948 10 220 1.6 1.6 0.00 0.00 0.00 99 993.5
20260510083352 10 225 1.6 1.6 0.00 0.00 0.00 99 993.2
20260510082744 10 226 0.0 1.6 0.00 0.00 0.00 99 993.5
20260510082119 11 223 1.6 1.6 0.00 0.00 0.00 99 993.5
20260510081549 11 225 0.0 0.0 0.00 0.00 0.00 99 993.2
20260510080918 11 226 0.0 1.6 0.00 0.00 0.00 99 993.2
20260510080327 11 229 0.0 1.6 0.00 0.00 0.00 99 993.2
20260510075750 11 229 0.0 0.0 0.00 0.00 0.00 99 993.2
20260510074542 11 227 0.0 1.6 0.00 0.00 0.00 99 992.8
20260510073942 11 213 1.6 3.2 0.00 0.00 0.00 99 993.2
20260510073347 11 202 3.2 3.2 0.00 0.00 0.00 99 992.8
20260510072734 11 208 1.6 3.2 0.00 0.00 0.00 99 992.8
20260510072126 11 225 1.6 3.2 0.00 0.00 0.00 98 992.8
20260510071546 11 209 3.2 3.2 0.00 0.00 0.00 99 993.2
20260510070925 11 227 1.6 3.2 0.00 0.00 0.00 98 993.2
20260510070312 11 222 1.6 3.2 0.00 0.00 0.00 98 992.8
20260510065734 12 208 3.2 3.2 0.00 0.00 0.00 98 992.8
20260510065141 12 209 3.2 4.8 0.00 0.00 0.00 98 992.8
20260510063923 12 193 3.2 4.8 0.00 0.00 0.00 98 993.2
20260510063330 12 187 3.2 4.8 0.00 0.00 0.00 98 993.2
20260510062709 12 206 3.2 3.2 0.00 0.00 0.00 97 993.2
20260510062146 12 206 3.2 4.8 0.00 0.00 0.00 97 993.2
20260510061534 12 204 3.2 3.2 0.00 0.00 0.00 97 993.2
20260510060949 12 187 3.2 3.2 0.00 0.00 0.00 97 993.2
20260510060341 12 203 3.2 4.8 0.00 0.00 0.00 97 993.2
20260510055725 12 221 3.2 3.2 0.00 0.00 0.00 96 993.2
20260510055118 12 209 3.2 3.2 0.00 0.00 0.00 96 993.2
20260510054538 12 188 3.2 4.8 0.00 0.00 0.00 96 992.8
20260510053314 12 195 1.6 3.2 0.00 0.00 0.00 96 992.8
20260510052149 12 214 3.2 3.2 0.00 0.00 0.00 96 993.2
20260510051548 12 204 3.2 3.2 0.00 0.00 0.00 96 993.2
20260510050912 12 220 1.6 1.6 0.00 0.00 0.00 95 993.2
20260510050332 12 213 1.6 3.2 0.00 0.00 0.00 95 993.5
20260510045721 13 143 1.6 3.2 0.00 0.00 0.00 95 993.5
20260510045110 13 206 3.2 3.2 0.00 0.00 0.00 94 993.2
20260510043931 13 195 3.2 3.2 0.00 0.00 0.00 94 993.2
20260510043338 13 216 1.6 3.2 0.00 0.00 0.00 94 993.5
20260510042711 13 190 3.2 3.2 0.00 0.00 0.00 94 993.5
20260510042145 13 193 1.6 3.2 0.00 0.00 0.00 93 993.5
20260510041533 13 210 1.6 4.8 0.00 0.00 0.00 93 993.5
20260510040924 13 171 3.2 4.8 0.00 0.00 0.00 93 993.5
20260510040343 13 190 3.2 4.8 0.00 0.00 0.00 93 993.5
20260510035747 13 198 3.2 4.8 0.00 0.00 0.00 92 993.5
20260510035123 13 204 3.2 4.8 0.00 0.00 0.00 92 993.2
20260510034541 13 192 4.8 4.8 0.00 0.00 0.00 92 993.5
20260510033910 14 203 3.2 4.8 0.00 0.00 0.00 91 993.5
20260510033316 14 201 4.8 4.8 0.00 0.00 0.00 91 993.2
20260510032752 14 198 4.8 4.8 0.00 0.00 0.00 91 993.5
20260510032147 14 192 3.2 4.8 0.00 0.00 0.00 90 993.2
20260510031524 14 166 3.2 4.8 0.00 0.00 0.00 89 993.2
20260510030919 14 197 3.2 4.8 0.00 0.00 0.00 89 993.2
20260510030328 14 183 3.2 4.8 0.00 0.00 0.00 88 993.2
20260510025732 15 215 3.2 3.2 0.00 0.00 0.00 88 993.2
20260510025123 15 191 3.2 4.8 0.00 0.00 0.00 87 992.8
20260510023940 15 192 3.2 4.8 0.00 0.00 0.00 86 992.8
20260510022739 15 186 3.2 4.8 0.00 0.00 0.00 85 992.5
20260510021510 16 219 1.6 3.2 0.00 0.00 0.00 83 992.5
20260510020952 16 210 1.6 3.2 0.00 0.00 0.00 83 992.5
20260510015740 16 210 1.6 3.2 0.00 0.00 0.00 81 992.2
20260510015143 16 218 1.6 1.6 0.00 0.00 0.00 81 992.2
20260510014511 16 204 3.2 3.2 0.00 0.00 0.00 80 992.2
20260510013946 17 217 1.6 1.6 0.00 0.00 0.00 79 992.2
20260510012725 17 215 1.6 3.2 0.00 0.00 0.00 78 991.8
20260510012131 17 204 1.6 3.2 0.00 0.00 0.00 77 991.8
20260510011556 17 225 0.0 1.6 0.00 0.00 0.00 77 991.8
20260510010951 17 223 1.6 3.2 0.00 0.00 0.00 77 991.5
20260510010348 17 213 1.6 3.2 0.00 0.00 0.00 75 991.5
20260510005143 18 211 1.6 3.2 0.00 0.00 0.00 74 991.5
20260510004550 18 216 1.6 3.2 0.00 0.00 0.00 73 991.1
20260510003307 18 230 0.0 1.6 0.00 0.00 0.00 72 991.1
20260510002716 19 223 1.6 3.2 0.00 0.00 0.00 70 991.1
20260510001511 20 217 1.6 3.2 0.00 0.00 0.00 69 990.8
20260510000943 20 199 4.8 6.4 0.00 0.00 0.00 68 991.1
20260510000349 20 206 1.6 3.2 0.00 0.00 0.00 68 990.8
20260509235710 20 191 1.6 4.8 0.00 0.00 0.00 67 990.8
20260509235126 20 218 1.6 3.2 0.00 0.00 0.00 68 990.8
20260509234543 20 223 1.6 3.2 0.00 0.00 0.00 67 990.5
20260509233949 20 212 3.2 6.4 0.00 0.00 0.00 65 990.8
20260509233339 21 216 3.2 9.7 0.00 0.00 0.00 64 990.5
20260509232130 21 201 3.2 3.2 0.00 0.00 0.00 64 990.8
20260509231509 21 219 3.2 4.8 0.00 0.00 0.00 63 990.8
20260509230951 21 152 6.4 6.4 0.00 0.00 0.00 63 990.5
20260509230332 21 210 3.2 4.8 0.00 0.00 0.00 64 990.8
20260509225146 21 170 3.2 4.8 0.00 0.00 0.00 64 990.8
20260509224535 21 214 4.8 11.3 0.00 0.00 0.00 63 990.8
20260509223928 21 185 4.8 6.4 0.00 0.00 0.00 63 990.5
20260509223343 21 208 4.8 12.9 0.00 0.00 0.00 62 990.5
20260509222130 21 228 3.2 6.4 0.00 0.00 0.00 65 990.5
20260509220917 21 204 3.2 9.7 0.00 0.00 0.00 63 990.8
20260509220325 21 181 4.8 6.4 0.00 0.00 0.00 61 990.8
20260509215723 21 217 6.4 12.9 0.00 0.00 0.00 61 990.8
20260509215134 21 212 1.6 4.8 0.00 0.00 0.00 63 990.8
20260509214520 21 188 4.8 16.1 0.00 0.00 0.00 61 990.8
20260509213334 21 242 1.6 3.2 0.00 0.00 0.00 65 990.8
20260509212738 21 202 1.6 6.4 0.00 0.00 0.00 63 991.1
20260509212145 21 207 3.2 11.3 0.00 0.00 0.00 60 991.1
20260509211542 21 228 1.6 4.8 0.00 0.00 0.00 60 991.1
20260509210931 22 185 4.8 17.7 0.00 0.00 0.00 59 991.1
20260509210318 21 159 8.0 14.5 0.00 0.00 0.00 61 990.8
20260509205747 21 113 6.4 12.9 0.00 0.00 0.00 62 991.1
20260509205134 21 183 1.6 3.2 0.00 0.00 0.00 65 990.8
20260509204537 21 194 3.2 4.8 0.00 0.00 0.00 61 990.8
20260509203950 21 173 6.4 11.3 0.00 0.00 0.00 60 990.8